Date,TemperatureHighF,TemperatureAvgF,TemperatureLowF,DewpointHighF,DewpointAvgF,DewpointLowF,HumidityHigh,HumidityAvg,HumidityLow,PressureMaxIn,PressureMinIn,WindSpeedMaxMPH,WindSpeedAvgMPH,GustSpeedMaxMPH,PrecipitationSumIn
2013-1-3,30,22,12,25,15,4,85,73,65,30.21,29.95,9,2,12,0.00
2013-1-4,36,32,28,24,22,17,75,66,62,29.99,29.87,15,4,22,0.06
2013-1-5,38,34,32,27,23,21,70,65,59,30.25,29.99,7,1,10,0.01
2013-1-6,39,36,32,32,28,22,81,73,64,30.04,29.85,8,2,11,0.00
2013-1-7,36,30,26,31,21,17,83,71,59,30.39,30.06,7,2,11,0.00
2013-1-8,42,34,30,27,22,18,71,61,53,30.31,30.12,8,2,13,0.00
2013-1-9,50,38,29,35,27,19,75,64,54,30.26,29.91,6,3,14,0.00
2013-1-10,42,40,37,32,31,25,75,68,56,30.58,30.29,8,0,12,0.00
2013-1-11,46,41,35,41,33,26,91,72,55,30.42,29.88,8,4,20,0.14
2013-1-12,59,51,45,49,45,41,90,80,69,30.00,29.93,5,3,11,0.00
2013-1-13,67,58,48,54,50,44,90,75,64,29.95,29.73,12,4,21,0.00
2013-1-14,54,38,31,50,28,18,87,67,56,30.38,29.73,4,1,6,0.01
2013-1-15,36,31,29,21,19,17,66,61,47,30.38,30.21,0,0,2,0.00
2013-1-16,39,35,30,29,23,20,70,62,55,30.18,29.77,5,0,8,0.00
2013-1-17,38,27,19,28,16,8,76,62,53,30.18,29.82,5,1,13,0.00
2013-1-18,33,23,16,14,8,2,73,53,34,30.41,30.02,11,2,17,0.00
2013-1-19,50,44,33,29,22,12,50,43,32,30.03,29.57,15,4,24,0.00
2013-1-20,51,33,20,35,17,6,77,52,34,30.06,29.41,18,5,29,0.13
2013-1-21,21,20,19,7,5,2,55,50,48,30.04,29.95,4,2,10,0.00
2013-1-22,16,11,8,2,-3,-13,67,54,29,30.16,29.85,5,2,10,0.00
2013-1-23,18,9,5,10,0,-5,71,65,63,30.21,30.10,2,0,8,0.00
2013-1-24,13,9,6,2,0,-4,66,65,54,30.49,30.07,1,0,2,0.00
2013-1-25,14,13,11,4,3,2,69,63,59,30.48,30.31,3,0,5,0.00
2013-1-26,26,20,8,14,7,-2,69,58,44,30.25,30.06,5,0,7,0.00
2013-1-27,27,23,20,15,11,9,68,60,52,30.53,30.35,3,0,8,0.01
2013-1-28,28,26,24,23,15,12,81,62,56,30.35,30.05,6,2,9,0.00
2013-1-29,55,41,32,53,40,31,99,96,89,30.03,29.73,4,1,8,0.26
2013-1-30,66,58,49,54,50,43,95,75,56,29.71,29.01,15,3,26,0.14
2013-1-31,56,33,24,52,20,5,88,59,36,29.67,29.00,11,3,29,0.17
2013-2-1,25,22,20,17,10,4,82,62,46,30.17,29.66,9,2,15,0.00
2013-2-2,22,19,17,11,5,0,66,54,45,30.17,29.95,12,3,19,0.00
2013-2-3,28,21,14,14,10,8,73,64,47,29.97,29.78,8,2,10,0.00
2013-2-4,24,20,18,12,7,4,74,57,43,29.94,29.82,6,2,13,0.00
2013-2-5,28,23,17,14,10,7,75,58,44,29.95,29.82,6,1,11,0.00
2013-2-6,29,25,20,22,14,4,75,62,40,30.38,29.84,6,2,11,0.00
2013-2-7,31,24,17,26,16,10,96,70,59,30.42,30.07,6,2,8,0.00
2013-2-8,34,30,20,33,27,20,100,91,69,30.07,29.77,5,1,9,0.00
2013-2-9,23,20,17,21,18,14,100,92,86,30.40,30.06,0,0,0,0.00
2013-2-10,32,21,17,27,18,15,90,87,78,30.40,30.19,0,0,0,0.17
2013-2-11,53,40,34,46,35,28,96,82,71,29.93,29.51,13,5,21,0.08
2013-2-12,36,34,33,34,30,27,98,83,69,29.94,29.66,5,2,11,0.00
2013-2-13,39,33,27,30,27,24,91,80,65,29.89,29.72,2,0,6,0.00
2013-2-14,42,36,28,38,34,24,100,94,65,29.90,29.75,7,2,12,0.14
2013-2-15,40,36,34,39,29,24,100,76,61,29.98,29.73,8,2,20,0.01
2013-2-16,34,30,24,24,22,17,81,72,67,29.99,29.90,4,0,8,0.01
2013-2-17,24,20,16,20,16,12,94,88,81,29.93,29.87,2,0,3,0.00
2013-2-18,32,23,13,20,14,7,87,69,55,30.23,29.90,4,2,8,0.00
2013-2-19,46,35,28,41,28,18,100,76,60,29.89,29.51,6,3,11,0.14
2013-2-20,27,23,20,20,16,14,85,74,63,30.03,29.73,9,3,17,0.00
2013-2-21,23,19,15,19,15,10,92,83,74,30.39,30.00,8,2,14,0.00
2013-2-22,36,28,20,32,24,17,100,84,73,30.35,29.99,6,2,13,0.00
2013-2-23,41,36,33,37,32,27,99,88,78,29.99,29.84,9,2,14,0.05
2013-2-24,35,33,32,31,28,26,93,84,72,30.04,29.81,5,1,13,0.01
2013-2-25,37,34,32,32,31,30,92,87,76,30.22,30.03,4,0,13,0.00
2013-2-26,43,36,33,32,31,31,92,83,65,30.22,29.98,5,1,8,0.00
2013-2-27,43,43,43,32,32,32,65,65,65,29.98,29.98,4,4,8,0.00
2013-3-2,29,26,24,26,23,20,94,86,78,29.91,29.85,0,0,0,0.00
2013-3-3,26,24,23,24,20,18,98,85,73,29.87,29.81,0,0,0,0.00
2013-3-4,32,27,23,25,22,18,85,80,71,30.03,29.86,4,2,8,0.02
2013-3-5,32,28,26,28,24,21,91,83,79,30.07,29.99,3,0,5,0.01
2013-3-6,40,34,25,37,32,22,95,91,84,30.14,29.94,4,1,6,0.00
2013-3-7,36,35,33,36,33,28,100,91,77,30.26,30.11,2,0,4,0.00
2013-3-8,40,36,33,31,29,27,86,76,67,30.40,30.24,3,0,4,0.00
2013-3-9,46,36,27,38,32,25,100,84,66,30.38,30.21,4,0,7,0.00
2013-3-10,65,52,36,40,34,28,78,52,38,30.21,29.94,11,2,18,0.00
2013-3-11,57,54,50,51,39,33,82,57,48,29.95,29.66,12,3,24,0.02
2013-3-12,57,42,36,53,40,33,100,93,82,29.90,29.66,11,1,20,0.20
2013-3-13,40,34,29,36,31,25,100,88,71,29.90,29.80,7,1,15,0.01
2013-3-14,30,30,30,28,28,28,93,93,93,29.89,29.89,2,2,7,0.00
2013-3-20,34,29,25,28,23,21,93,79,58,29.83,29.75,5,2,10,0.00
2013-3-21,35,28,22,28,21,15,100,76,52,29.81,29.70,7,2,11,0.00
2013-3-22,34,30,26,30,28,26,100,92,79,29.91,29.69,4,2,8,0.02
2013-3-23,40,34,30,33,30,28,100,85,73,29.99,29.86,4,2,6,0.02
2013-3-24,38,34,29,32,29,24,96,82,63,29.99,29.74,4,0,6,0.00
2013-3-25,40,36,33,35,31,28,98,83,72,29.72,29.62,4,1,7,0.00
2013-3-26,42,39,33,40,34,31,98,84,72,29.91,29.71,3,0,9,0.00
2013-3-27,39,35,34,32,30,30,86,85,76,29.91,29.87,5,1,9,0.00
2013-3-28,34,34,34,30,30,30,86,86,86,29.89,29.89,2,2,6,0.00
2013-3-29,34,34,34,30,30,30,86,86,86,29.89,29.89,2,2,6,0.00
2013-3-30,34,34,34,30,30,30,86,86,86,29.89,29.89,2,2,6,0.00
2013-3-31,34,34,34,30,30,30,86,86,86,29.89,29.89,2,2,6,0.00
2013-4-1,34,34,34,30,30,30,86,86,86,29.89,29.89,2,2,6,0.00
2013-4-2,36,31,25,33,24,20,100,75,52,30.08,29.91,8,3,12,0.00
2013-4-3,38,32,28,31,23,18,96,70,48,30.35,30.06,8,2,16,0.00
2013-4-4,57,39,28,34,26,21,80,61,38,30.33,29.88,11,2,18,0.00
2013-4-5,43,41,38,39,35,21,93,78,44,29.95,29.84,8,1,11,0.00
2013-4-6,42,42,42,38,38,38,84,84,84,29.95,29.95,2,2,5,0.00
2013-4-7,42,42,42,38,38,38,84,84,84,29.95,29.95,2,2,5,0.00
2013-4-8,50,45,41,47,42,39,100,90,73,30.11,29.73,3,0,5,0.06
2013-4-9,57,47,42,57,47,42,100,100,98,30.10,29.72,4,1,8,0.51
2013-4-10,45,41,39,45,41,39,100,100,100,30.09,29.87,4,0,8,0.52
2013-4-11,39,35,33,39,34,30,100,99,77,30.11,29.95,4,1,8,0.21
2013-4-12,33,33,33,33,33,33,100,100,100,30.09,30.09,2,2,6,0.00
2013-4-13,48,44,41,43,40,37,98,86,71,29.91,29.75,5,3,8,0.00
2013-4-14,44,40,36,40,36,30,100,85,69,30.19,29.93,4,2,8,0.04
2013-4-15,75,57,36,56,48,29,86,71,50,30.17,29.97,10,3,19,0.00
2013-4-16,62,61,61,55,54,54,80,78,77,30.04,30.00,9,4,17,0.00
2013-4-18,79,63,45,65,55,38,92,77,59,30.22,29.70,23,5,30,0.14
2013-4-19,75,61,44,67,56,38,100,84,72,29.76,29.38,10,4,18,0.22
2013-4-20,44,40,36,39,33,26,100,76,63,30.40,29.71,8,2,11,0.02
2013-4-21,41,37,33,34,28,18,85,72,43,30.68,30.41,4,0,7,0.00
2013-4-22,60,48,32,38,32,25,79,57,40,30.59,30.32,5,1,8,0.00
2013-4-23,63,53,42,46,41,35,84,64,51,30.32,29.94,4,2,9,0.00
2013-4-24,70,56,41,62,52,41,100,88,63,29.97,29.54,13,4,20,0.13
2013-4-25,54,45,37,44,40,37,100,84,57,30.30,29.97,8,1,11,0.06
2013-4-26,48,44,40,45,42,40,100,94,74,30.46,30.29,2,0,5,0.00
2013-4-27,64,53,41,45,42,37,92,67,46,30.43,30.21,7,1,14,0.00
2013-4-28,77,63,52,56,48,42,100,62,37,30.21,30.01,6,2,10,0.06
2013-4-29,67,62,51,58,54,51,100,74,62,30.05,29.97,12,2,18,0.07
2013-4-30,76,65,57,57,54,51,94,68,45,30.22,30.03,10,2,18,0.00
2013-5-1,80,68,60,53,44,31,75,47,19,30.34,30.22,7,0,11,0.00
2013-5-2,71,62,53,45,39,30,58,44,29,30.40,30.31,7,0,11,0.00
2013-5-3,60,60,60,43,43,43,53,53,53,30.32,30.32,0,0,0,0.00
2013-5-4,71,63,56,46,42,37,62,47,37,30.28,30.15,3,0,7,0.07
2013-5-5,68,59,51,49,45,41,79,61,41,30.19,30.08,4,0,6,0.00
2013-5-6,69,60,53,48,42,35,73,53,35,30.14,30.01,6,0,9,0.00
2013-5-7,72,66,52,55,52,45,88,62,52,30.11,30.04,0,0,0,0.00
2013-5-9,63,56,53,61,55,52,99,97,83,29.93,29.86,2,0,4,0.12
2013-5-10,75,63,54,64,59,53,99,88,63,29.93,29.73,7,1,11,0.35
2013-5-11,61,56,50,60,52,46,99,89,65,29.75,29.65,4,1,11,0.08
2013-5-12,53,46,41,48,38,28,96,74,38,29.89,29.67,4,2,8,0.07
2013-5-13,53,44,38,36,33,31,81,66,42,30.11,29.90,7,1,13,0.00
2013-5-14,57,46,37,42,36,33,96,69,45,30.14,29.96,4,1,5,0.00
2013-5-15,84,75,48,61,57,33,97,55,46,29.95,29.50,9,4,17,0.08
2013-5-16,84,67,52,61,49,41,77,53,34,30.01,29.51,5,2,10,0.00
2013-5-17,62,53,44,48,45,40,97,75,53,30.22,30.01,25,0,0,0.00
2013-5-18,68,57,45,54,46,37,99,70,41,30.25,30.14,3,0,5,0.00
2013-5-19,81,68,60,64,58,51,85,71,53,30.14,29.98,9,1,14,0.00
2013-5-20,79,70,57,68,63,54,95,79,64,30.04,29.93,9,1,14,0.00
2013-5-21,76,75,56,66,66,56,99,73,71,29.93,29.78,2,0,3,0.07
2013-5-22,86,67,57,73,63,56,99,88,57,29.80,29.63,8,1,14,0.20
2013-5-23,78,67,47,66,60,47,99,78,53,29.89,29.71,11,2,18,0.06
2013-5-24,53,46,41,47,43,41,99,91,66,30.18,29.89,3,1,8,0.12
2013-5-25,60,51,45,47,42,39,90,72,48,30.20,30.11,3,0,8,0.01
2013-5-26,65,55,48,46,42,35,86,64,37,30.18,30.08,5,0,10,0.00
2013-5-27,66,55,47,48,40,28,78,59,27,30.25,30.11,6,1,11,0.00
2013-5-28,64,59,54,61,51,40,99,77,54,30.14,29.92,5,1,11,0.43
2013-5-29,84,68,60,71,63,60,99,85,54,29.96,29.92,10,2,18,0.32
2013-5-30,91,81,68,71,65,56,86,62,33,30.12,30.02,5,1,11,0.00
2013-5-31,92,79,70,70,66,63,83,66,39,30.08,29.95,8,2,12,0.00
2013-6-1,92,79,70,70,66,64,84,65,44,29.99,29.79,10,3,16,0.00
2013-6-2,80,71,59,69,64,55,99,80,47,29.88,29.70,9,2,14,0.37
2013-6-3,64,59,52,55,48,42,88,67,48,30.00,29.89,4,1,8,0.00
2013-6-4,59,56,50,48,47,43,83,71,66,30.12,29.99,3,0,7,0.00
2013-6-5,59,59,59,47,47,47,66,66,66,30.12,30.12,0,0,4,0.00
2013-6-6,59,59,58,58,48,47,99,67,66,30.12,29.96,1,0,4,0.45
2013-6-7,59,56,55,59,56,54,99,99,97,29.84,29.78,1,0,2,0.09
2013-6-8,64,60,55,61,58,55,99,92,79,30.06,29.79,4,0,8,0.04
2013-6-9,71,64,58,60,56,54,89,76,59,30.19,30.06,7,1,9,0.00
2013-6-10,71,66,63,66,62,56,99,86,73,30.12,29.71,5,0,13,0.07
2013-6-11,78,64,57,66,62,55,99,96,85,29.83,29.63,4,1,9,0.18
2013-6-12,60,59,57,59,58,56,99,96,94,29.85,29.83,2,0,3,0.00
2013-6-13,68,61,56,60,58,56,99,92,74,29.78,29.53,3,1,5,0.66
2013-6-14,72,66,55,62,60,54,99,81,66,29.97,29.78,3,0,6,0.01
2013-6-15,78,64,56,58,53,48,83,68,47,30.04,29.93,7,0,11,0.00
2013-6-16,76,70,63,69,62,52,99,79,56,29.95,29.69,8,2,13,0.22
2013-6-17,78,68,63,65,62,58,97,81,61,29.94,29.81,8,1,12,0.00
2013-6-18,68,62,57,59,55,50,95,80,57,30.01,29.90,2,0,6,0.00
2013-6-19,67,59,50,55,49,42,95,72,39,30.19,30.02,1,0,3,0.00
2013-6-20,70,60,49,56,51,47,99,75,44,30.24,30.19,2,0,4,0.00
2013-6-21,76,66,56,60,55,48,87,69,50,30.26,30.17,3,0,7,0.00
2013-6-22,81,68,61,67,62,56,91,80,61,30.17,30.09,7,2,11,0.00
2013-6-23,88,81,73,75,71,65,92,71,53,30.08,30.00,10,1,13,0.00
2013-6-24,90,82,75,73,67,63,78,62,44,30.06,29.94,9,3,15,0.00
2013-6-25,79,77,74,70,69,65,83,75,62,29.95,29.90,7,3,13,0.00
2013-7-4,77,77,77,75,75,75,95,94,94,30.19,30.19,1,0,2,0.06
2013-8-6,72,69,68,64,63,62,84,81,73,30.02,30.00,4,1,4,0.00
2013-8-7,83,74,67,69,66,61,85,75,58,30.00,29.89,15,5,15,0.00
2013-8-8,79,74,68,73,70,66,99,89,77,29.99,29.91,8,2,9,0.07
2013-8-9,78,72,68,73,68,61,99,90,63,29.94,29.87,13,1,13,0.79
2013-8-10,74,68,59,63,58,52,92,73,48,30.10,29.93,11,1,11,0.79
2013-8-11,74,66,57,62,59,56,99,81,60,30.13,30.03,8,1,8,0.00
2013-8-12,76,69,61,67,63,58,93,80,60,30.06,29.86,7,1,7,0.01
2013-8-13,74,67,61,70,62,50,99,84,62,29.87,29.74,13,2,13,0.28
2013-8-14,71,63,56,58,54,49,96,73,47,30.08,29.81,14,3,14,0.00
2013-8-15,76,66,56,59,54,50,87,66,44,30.13,30.07,13,4,13,0.00
2013-8-16,76,66,57,63,58,54,90,74,51,30.22,30.10,10,2,10,0.00
2013-8-17,69,66,59,62,60,57,97,83,76,30.30,30.21,8,2,8,0.00
2013-8-18,69,69,69,61,61,61,76,76,76,30.29,30.29,2,2,6,0.00
2013-8-19,69,69,69,61,61,61,76,76,76,30.29,30.29,2,2,6,0.00
2013-8-20,69,69,69,61,61,61,76,76,76,30.29,30.29,2,2,6,0.00
2013-8-21,69,69,69,61,61,61,76,76,76,30.29,30.29,2,2,6,0.00
2013-8-22,69,69,69,61,61,61,76,76,76,30.29,30.29,2,2,6,0.00
2013-8-23,69,69,69,61,61,61,76,76,76,30.29,30.29,2,2,6,0.00
2013-8-24,69,69,69,61,61,61,76,76,76,30.29,30.29,2,2,6,0.00
2013-8-25,69,69,69,61,61,61,76,76,76,30.29,30.29,2,2,6,0.00
2013-8-26,80,71,69,73,66,61,98,85,75,30.29,29.93,10,2,10,0.91
2013-8-27,79,73,70,74,71,70,99,95,82,29.97,27.64,10,2,10,0.01
2013-8-28,77,75,70,74,72,69,98,92,88,29.91,29.86,5,1,5,0.00
2013-8-29,79,76,68,74,72,68,99,90,82,30.08,29.91,4,1,4,0.00
2013-8-30,87,75,66,74,68,65,99,81,48,30.03,29.78,8,3,10,0.00
2013-8-31,79,74,69,75,72,68,99,93,83,29.89,29.74,8,1,8,0.15
2013-9-1,79,72,69,73,70,69,99,93,81,29.87,29.78,5,1,5,0.00
2013-9-2,82,77,67,75,70,60,99,80,75,29.81,29.72,8,2,8,0.01
2013-9-3,68,66,63,61,59,57,84,78,68,29.93,29.78,13,4,13,0.00
2013-9-4,81,70,60,65,57,48,88,68,33,29.98,29.93,17,5,17,0.00
2013-9-5,68,63,55,63,51,42,87,67,47,30.21,29.97,8,1,8,0.00
2013-9-6,71,60,49,56,50,45,96,72,42,30.27,30.07,10,2,10,0.00
2013-9-7,66,62,58,62,55,50,92,78,62,30.07,29.87,13,5,13,0.06
2013-9-8,67,62,52,62,54,45,92,77,49,30.09,29.87,6,3,8,0.01
2013-9-9,76,62,49,64,54,47,98,77,46,30.14,29.96,17,3,17,0.00
2013-9-10,94,81,70,77,71,63,98,72,52,30.01,29.88,21,7,21,0.45
2013-9-11,95,85,78,75,73,68,82,68,44,30.03,29.89,16,6,16,0.00
2013-9-12,78,71,64,71,68,61,97,90,73,29.93,29.74,13,3,13,0.17
2013-9-13,64,61,59,62,60,57,98,95,91,29.82,29.74,7,2,7,0.43
2013-9-14,62,56,51,52,47,42,85,72,57,30.11,29.99,11,1,11,0.00
2013-9-15,70,59,50,56,50,44,95,72,53,30.14,30.04,13,4,13,0.11
2013-9-16,56,53,48,56,50,44,99,91,70,30.38,30.05,10,2,11,0.08
2013-9-17,62,52,43,50,46,42,98,82,52,30.48,30.30,8,1,8,0.00
2013-9-18,71,63,51,57,52,44,98,69,41,30.25,30.09,12,1,12,0.00
2013-9-19,78,66,57,63,58,50,98,76,45,30.13,30.00,11,2,11,0.00
2013-9-20,85,71,60,66,62,57,98,75,50,30.00,29.78,13,4,13,0.00
2013-9-21,74,65,56,64,62,55,99,89,66,29.78,29.62,12,3,12,0.86
2013-9-22,57,54,52,55,48,43,98,80,67,30.01,29.72,12,3,12,0.00
2013-9-23,58,54,49,48,46,44,94,76,65,30.15,30.00,7,2,7,0.00
2013-9-24,62,53,45,52,47,44,99,83,63,30.13,29.99,6,1,6,0.00
2013-9-25,65,55,46,58,50,46,99,87,67,30.01,29.95,10,2,10,0.00
2013-9-26,67,56,48,62,54,48,99,91,77,30.16,30.00,8,1,8,0.00
2013-9-27,65,57,50,59,55,50,99,92,77,30.27,30.16,4,1,4,0.00
2013-9-28,72,54,48,62,52,48,99,93,66,30.30,30.16,6,2,6,0.00
2013-9-29,77,63,52,58,54,50,94,74,47,30.17,29.99,12,2,12,0.00
2013-9-30,74,65,58,64,58,53,89,79,69,30.01,29.94,10,3,10,0.00
2013-10-1,71,67,62,66,62,58,97,83,66,30.03,29.91,11,2,11,0.00
2013-10-2,72,68,64,64,62,54,89,83,54,30.09,29.91,11,4,11,0.00
2013-10-3,68,63,54,60,58,52,97,82,61,30.13,30.02,6,0,6,0.01
2013-10-4,63,61,59,62,60,58,99,98,97,30.07,29.98,6,0,6,0.30
2013-10-5,62,61,60,61,60,57,98,95,89,30.09,30.03,5,1,5,0.02
2013-10-6,79,68,61,76,66,60,99,93,75,30.03,29.74,19,1,19,0.33
2013-10-7,75,63,54,67,57,48,99,82,64,30.04,29.63,25,5,25,0.47
2013-10-8,63,54,47,51,48,46,97,81,61,30.35,30.04,10,2,10,0.00
2013-10-9,64,53,44,55,49,44,99,88,63,30.40,30.27,7,1,7,0.00
2013-10-10,63,52,42,54,48,41,99,85,62,30.28,30.15,8,1,8,0.00
2013-10-11,65,53,46,58,51,45,99,93,73,30.16,30.11,4,1,4,0.00
2013-10-12,76,60,46,60,47,41,99,71,30,30.19,30.12,6,2,6,0.00
2013-10-13,75,63,58,63,57,51,98,81,61,30.27,30.17,11,3,11,0.08
2013-10-14,63,57,50,61,55,49,99,93,76,30.34,30.25,10,1,10,0.17
2013-10-15,51,48,45,51,47,44,99,98,97,30.30,30.22,8,2,8,0.01
2013-10-16,64,60,60,56,54,50,83,80,63,29.94,29.86,11,0,11,0.01
2013-10-17,66,59,54,55,54,49,98,84,57,29.89,29.66,8,0,8,0.38
2013-10-18,62,55,50,53,46,36,97,74,41,29.91,29.70,19,4,19,0.02
2013-10-19,66,56,46,50,45,42,93,67,46,30.63,29.61,16,5,16,0.06
2013-10-20,56,49,44,47,42,39,95,77,55,29.98,29.73,17,5,17,0.00
2013-10-21,68,57,48,51,41,36,95,58,31,29.97,29.78,21,5,21,0.00
2013-10-22,54,48,44,50,38,26,99,69,37,29.83,29.70,10,3,10,0.20
2013-10-23,47,43,39,41,37,30,87,78,59,29.80,29.68,10,2,10,0.01
2013-10-24,51,42,37,40,35,32,99,78,51,30.00,29.75,20,5,20,0.27
2013-10-25,52,44,39,41,39,37,99,84,64,30.17,30.00,10,3,10,0.02
2013-10-26,48,44,40,39,34,28,91,66,49,30.11,29.76,23,8,23,0.01
2013-10-27,48,44,40,40,38,35,94,79,66,30.05,29.78,14,3,14,0.00
2013-10-28,50,44,32,43,34,25,84,70,53,30.39,30.00,14,2,14,0.00
2013-10-29,46,37,30,33,29,24,89,73,53,30.47,30.30,7,0,7,0.00
2013-10-30,54,44,38,46,41,33,99,90,68,30.30,30.09,6,0,6,0.06
2013-10-31,67,56,45,61,53,41,99,90,79,30.09,29.37,17,4,17,0.39
2013-11-1,66,59,50,61,51,44,98,77,53,29.68,29.15,30,8,30,0.27
2013-11-2,52,47,41,49,45,36,99,94,83,29.99,29.60,9,3,9,0.22
2013-11-3,41,36,34,36,27,22,85,69,59,30.52,29.99,10,2,10,0.00
2013-11-4,44,36,28,27,21,12,89,58,28,30.63,30.44,8,2,8,0.00
2013-11-5,60,48,37,37,29,20,55,47,37,30.45,30.31,14,5,14,0.00
2013-11-6,67,58,49,56,44,35,90,62,46,30.31,29.77,22,6,22,0.07
2013-11-7,59,46,41,57,40,30,97,81,55,29.99,29.76,13,3,13,0.20
2013-11-8,43,40,37,35,32,27,88,71,56,30.21,29.91,13,2,13,0.00
2013-11-9,50,44,38,43,32,28,89,63,47,30.20,29.75,16,4,16,0.02
2013-11-10,51,46,42,43,36,31,82,69,61,30.13,29.75,16,4,16,0.02
2013-11-11,47,40,32,39,33,23,97,77,54,30.14,29.90,18,4,18,0.40
2013-11-12,34,31,29,28,23,18,84,73,62,30.37,30.08,9,3,9,0.07
2013-11-13,39,33,24,28,19,11,69,58,43,30.40,30.03,22,5,22,0.01
2013-11-14,51,44,37,28,18,13,57,37,24,30.08,29.99,21,6,21,0.00
2013-11-15,54,47,43,24,19,14,39,32,27,30.09,30.02,17,5,17,0.00
2013-11-16,60,53,44,41,35,22,67,52,34,30.23,30.02,10,2,10,0.00
2013-11-17,62,57,51,55,50,41,97,79,66,30.02,29.35,27,5,27,0.22
2013-11-18,55,54,54,50,49,49,85,84,81,29.42,29.37,13,8,15,0.02
2013-11-22,62,54,50,55,45,36,97,72,49,30.11,29.71,9,3,9,0.11
2013-11-23,62,41,20,55,33,9,93,72,48,30.14,29.36,11,7,11,0.47
2013-11-24,26,23,19,16,12,5,80,62,44,30.39,30.13,8,5,8,0.00
2013-11-25,36,30,21,16,10,2,74,46,24,30.34,30.09,14,6,14,0.00
2013-11-26,38,35,32,32,27,20,95,73,53,30.12,29.82,11,4,11,0.00
2013-11-27,36,32,25,34,28,16,98,84,65,29.85,29.60,8,4,8,0.34
2013-11-28,30,27,22,17,13,9,75,56,44,30.41,29.86,11,2,11,0.01
2013-11-29,32,25,18,21,14,9,84,62,51,30.72,30.40,7,2,7,0.04
2013-11-30,33,25,14,21,14,7,79,62,47,30.71,30.16,17,4,17,0.00
2013-12-1,42,36,32,34,28,21,93,73,57,30.16,29.93,14,4,14,0.06
2013-12-2,41,38,35,35,33,30,91,83,73,29.94,29.85,7,1,7,0.00
2013-12-3,40,35,30,32,29,26,86,80,68,30.00,29.89,8,1,8,0.00
2013-12-4,48,40,33,39,34,28,92,81,69,29.99,29.86,6,0,6,0.00
2013-12-5,64,53,41,53,44,31,83,73,52,29.98,29.69,21,5,21,0.01
2013-12-6,41,36,33,34,27,21,88,71,59,30.22,29.98,12,1,12,0.22
2013-12-7,34,30,26,26,17,11,80,59,39,30.53,30.20,11,3,11,0.00
2013-12-8,30,27,22,12,10,8,58,49,38,30.53,30.43,11,3,11,0.00
2013-12-9,29,29,29,12,12,12,48,48,48,30.43,30.43,2,2,3,0.00